Time,TemperatureF,DewpointF,PressureIn,WindDirection,WindDirectionDegrees,WindSpeedMPH,WindSpeedGustMPH,Humidity,HourlyPrecipIn,Conditions,Clouds,dailyrainin,SolarRadiationWatts/m^2,SoftwareType,DateUTC
2013-01-06 00:03:00,46.6,42.9,30.25,SE,143,0.0,0.0,87,0.00,,,0.00,0,Wunderground v.1.15,2013-01-06 05:03:00,
2013-01-06 00:13:00,46.8,43.1,30.25,SE,143,0.0,0.0,87,0.00,,,0.00,0,Wunderground v.1.15,2013-01-06 05:13:00,
2013-01-06 00:23:00,46.8,42.8,30.24,SE,143,0.0,0.0,86,0.00,,,0.00,0,Wunderground v.1.15,2013-01-06 05:23:00,
2013-01-06 00:33:00,46.9,42.9,30.24,SE,143,0.0,0.0,86,0.00,,,0.00,0,Wunderground v.1.15,2013-01-06 05:33:00,
2013-01-06 00:43:00,47.0,42.7,30.24,WNW,284,0.0,0.0,85,0.00,,,0.00,0,Wunderground v.1.15,2013-01-06 05:43:00,
2013-01-06 00:53:00,47.2,42.9,30.23,WNW,284,0.0,0.0,85,0.00,,,0.00,0,Wunderground v.1.15,2013-01-06 05:53:00,
2013-01-06 01:03:00,47.2,42.9,30.22,WNW,284,0.0,0.0,85,0.00,,,0.00,0,Wunderground v.1.15,2013-01-06 06:03:00,
2013-01-06 01:13:00,47.2,43.2,30.22,WNW,284,0.0,0.0,86,0.00,,,0.00,0,Wunderground v.1.15,2013-01-06 06:13:00,
2013-01-06 01:23:00,47.2,43.2,30.22,WNW,284,0.0,0.0,86,0.00,,,0.00,0,Wunderground v.1.15,2013-01-06 06:23:00,
2013-01-06 01:33:00,47.3,43.3,30.21,WNW,284,0.0,0.0,86,0.00,,,0.00,0,Wunderground v.1.15,2013-01-06 06:33:00,
2013-01-06 01:43:00,47.4,43.1,30.21,WNW,284,0.0,0.0,85,0.00,,,0.00,0,Wunderground v.1.15,2013-01-06 06:43:00,
2013-01-06 01:53:00,47.4,43.1,30.21,WNW,284,0.0,0.0,85,0.00,,,0.00,0,Wunderground v.1.15,2013-01-06 06:53:00,
2013-01-06 02:03:00,47.4,42.8,30.20,WNW,284,0.0,0.0,84,0.00,,,0.00,0,Wunderground v.1.15,2013-01-06 07:03:00,
2013-01-06 02:13:00,47.4,41.9,30.20,WNW,300,0.0,0.0,81,0.00,,,0.00,0,Wunderground v.1.15,2013-01-06 07:13:00,
2013-01-06 02:23:00,47.6,41.7,30.21,WNW,300,0.0,0.0,80,0.00,,,0.00,0,Wunderground v.1.15,2013-01-06 07:23:00,
2013-01-06 02:33:00,47.7,41.5,30.21,WNW,300,0.0,0.0,79,0.00,,,0.00,0,Wunderground v.1.15,2013-01-06 07:33:00,
2013-01-06 02:43:00,47.8,41.9,30.21,WNW,300,0.0,0.0,80,0.00,,,0.00,0,Wunderground v.1.15,2013-01-06 07:43:00,
2013-01-06 02:53:00,47.8,41.9,30.21,WNW,300,0.0,0.0,80,0.00,,,0.00,0,Wunderground v.1.15,2013-01-06 07:53:00,
2013-01-06 03:03:00,47.7,42.5,30.19,WNW,300,0.0,0.0,82,0.00,,,0.00,0,Wunderground v.1.15,2013-01-06 08:03:00,
2013-01-06 03:13:00,47.6,43.3,30.19,WNW,300,0.0,0.0,85,0.00,,,0.00,0,Wunderground v.1.15,2013-01-06 08:13:00,
2013-01-06 03:23:00,47.3,43.6,30.18,WNW,300,0.0,0.0,87,0.00,,,0.00,0,Wunderground v.1.15,2013-01-06 08:23:00,
2013-01-06 03:33:00,46.8,43.1,30.18,WNW,300,0.0,0.0,87,0.00,,,0.00,0,Wunderground v.1.15,2013-01-06 08:33:00,
2013-01-06 03:43:00,46.7,43.3,30.18,WNW,300,0.0,0.0,88,0.00,,,0.00,0,Wunderground v.1.15,2013-01-06 08:43:00,
2013-01-06 03:53:00,46.5,42.8,30.17,WNW,300,0.0,0.0,87,0.00,,,0.00,0,Wunderground v.1.15,2013-01-06 08:53:00,
2013-01-06 04:03:00,46.3,42.6,30.17,WNW,300,0.0,0.0,87,0.00,,,0.00,0,Wunderground v.1.15,2013-01-06 09:03:00,
2013-01-06 04:13:00,46.4,42.7,30.17,WNW,300,0.0,0.0,87,0.00,,,0.00,0,Wunderground v.1.15,2013-01-06 09:13:00,
2013-01-06 04:23:00,46.7,42.7,30.16,WNW,300,0.0,0.0,86,0.00,,,0.00,0,Wunderground v.1.15,2013-01-06 09:23:00,
2013-01-06 04:33:00,46.8,42.8,30.16,WNW,300,0.0,0.0,86,0.00,,,0.00,0,Wunderground v.1.15,2013-01-06 09:33:00,
2013-01-06 04:43:00,46.9,42.9,30.16,WNW,300,0.0,0.0,86,0.00,,,0.00,0,Wunderground v.1.15,2013-01-06 09:43:00,
2013-01-06 04:53:00,46.9,43.2,30.16,WNW,300,0.0,0.0,87,0.00,,,0.00,0,Wunderground v.1.15,2013-01-06 09:53:00,
2013-01-06 05:03:00,47.0,43.6,30.16,WNW,300,0.0,0.0,88,0.00,,,0.00,0,Wunderground v.1.15,2013-01-06 10:03:00,
2013-01-06 05:13:00,47.0,43.9,30.16,WNW,300,0.0,0.0,89,0.00,,,0.00,0,Wunderground v.1.15,2013-01-06 10:13:00,
2013-01-06 05:23:00,47.2,44.1,30.15,WNW,300,0.0,0.0,89,0.00,,,0.00,0,Wunderground v.1.15,2013-01-06 10:23:00,
2013-01-06 05:33:00,47.2,44.1,30.15,WNW,300,0.0,0.0,89,0.00,,,0.00,0,Wunderground v.1.15,2013-01-06 10:33:00,
2013-01-06 05:43:00,47.2,44.1,30.15,WNW,300,0.0,0.0,89,0.00,,,0.00,0,Wunderground v.1.15,2013-01-06 10:43:00,
2013-01-06 05:53:00,47.2,44.1,30.15,WNW,300,0.0,0.0,89,0.00,,,0.00,0,Wunderground v.1.15,2013-01-06 10:53:00,
2013-01-06 06:03:00,47.2,43.8,30.16,WNW,300,0.0,0.0,88,0.00,,,0.00,0,Wunderground v.1.15,2013-01-06 11:03:00,
2013-01-06 06:13:00,47.4,44.3,30.16,WNW,300,0.0,0.0,89,0.00,,,0.00,0,Wunderground v.1.15,2013-01-06 11:13:00,
2013-01-06 06:23:00,47.6,44.5,30.16,WNW,300,0.0,0.0,89,0.00,,,0.00,0,Wunderground v.1.15,2013-01-06 11:23:00,
2013-01-06 06:33:00,47.9,44.8,30.15,WNW,300,0.0,0.0,89,0.00,,,0.00,0,Wunderground v.1.15,2013-01-06 11:33:00,
2013-01-06 06:43:00,47.9,44.8,30.15,WNW,300,0.0,0.0,89,0.00,,,0.00,0,Wunderground v.1.15,2013-01-06 11:43:00,
2013-01-06 06:53:00,48.0,44.6,30.16,WNW,300,0.0,0.0,88,0.00,,,0.00,0,Wunderground v.1.15,2013-01-06 11:53:00,
2013-01-06 07:03:00,48.2,45.1,30.16,WNW,300,0.0,0.0,89,0.00,,,0.00,0,Wunderground v.1.15,2013-01-06 12:03:00,
2013-01-06 07:13:00,48.4,45.0,30.16,North,352,0.0,0.0,88,0.00,,,0.00,0,Wunderground v.1.15,2013-01-06 12:13:00,
2013-01-06 07:23:00,48.5,44.8,30.17,North,352,0.0,0.0,87,0.00,,,0.00,0,Wunderground v.1.15,2013-01-06 12:23:00,
2013-01-06 07:33:00,48.6,45.2,30.18,North,352,0.0,0.0,88,0.00,,,0.00,0,Wunderground v.1.15,2013-01-06 12:33:00,
2013-01-06 07:43:00,48.7,45.3,30.18,North,352,0.0,0.0,88,0.00,,,0.00,0,Wunderground v.1.15,2013-01-06 12:43:00,
2013-01-06 07:53:00,48.7,45.3,30.17,North,352,0.0,0.0,88,0.00,,,0.00,0,Wunderground v.1.15,2013-01-06 12:53:00,
2013-01-06 08:03:00,48.8,45.4,30.17,North,356,0.0,0.0,88,0.00,,,0.00,7,Wunderground v.1.15,2013-01-06 13:03:00,
2013-01-06 08:13:00,48.9,45.5,30.17,North,356,0.0,0.0,88,0.00,,,0.00,12,Wunderground v.1.15,2013-01-06 13:13:00,
2013-01-06 08:23:00,49.0,45.9,30.17,North,356,0.0,0.0,89,0.00,,,0.00,47,Wunderground v.1.15,2013-01-06 13:23:00,
2013-01-06 08:33:00,49.4,46.0,30.18,North,356,0.0,0.0,88,0.00,,,0.00,49,Wunderground v.1.15,2013-01-06 13:33:00,
2013-01-06 08:43:00,49.6,46.2,30.18,North,356,0.0,0.0,88,0.00,,,0.00,42,Wunderground v.1.15,2013-01-06 13:43:00,
2013-01-06 08:53:00,49.9,46.5,30.17,North,356,0.0,0.0,88,0.00,,,0.00,33,Wunderground v.1.15,2013-01-06 13:53:00,
2013-01-06 09:03:00,49.9,46.8,30.19,North,356,0.0,0.0,89,0.00,,,0.00,44,Wunderground v.1.15,2013-01-06 14:03:00,
2013-01-06 09:13:00,49.9,47.1,30.19,North,356,0.0,0.0,90,0.00,,,0.01,60,Wunderground v.1.15,2013-01-06 14:13:00,
2013-01-06 09:23:00,49.9,47.4,30.19,North,356,0.0,0.0,91,0.00,,,0.01,53,Wunderground v.1.15,2013-01-06 14:23:00,
2013-01-06 09:33:00,50.0,47.8,30.19,North,356,0.0,0.0,92,0.00,,,0.01,91,Wunderground v.1.15,2013-01-06 14:33:00,
2013-01-06 09:43:00,50.3,48.1,30.19,North,356,0.0,0.0,92,0.00,,,0.01,72,Wunderground v.1.15,2013-01-06 14:43:00,
2013-01-06 09:53:00,50.6,48.4,30.20,North,356,0.0,0.0,92,0.00,,,0.01,81,Wunderground v.1.15,2013-01-06 14:53:00,
2013-01-06 10:03:00,50.9,48.7,30.19,North,356,0.0,0.0,92,0.00,,,0.01,86,Wunderground v.1.15,2013-01-06 15:03:00,
2013-01-06 10:13:00,51.1,48.6,30.19,North,356,0.0,0.0,91,0.00,,,0.01,107,Wunderground v.1.15,2013-01-06 15:13:00,
2013-01-06 10:23:00,51.5,49.0,30.19,North,356,0.0,0.0,91,0.00,,,0.01,114,Wunderground v.1.15,2013-01-06 15:23:00,
2013-01-06 10:33:00,52.0,49.2,30.19,North,356,0.0,0.0,90,0.00,,,0.01,162,Wunderground v.1.15,2013-01-06 15:33:00,
2013-01-06 10:43:00,52.5,49.4,30.19,North,356,0.0,0.0,89,0.00,,,0.01,135,Wunderground v.1.15,2013-01-06 15:43:00,
2013-01-06 10:53:00,52.9,49.7,30.19,NNW,343,0.0,0.0,89,0.00,,,0.01,137,Wunderground v.1.15,2013-01-06 15:53:00,
2013-01-06 11:03:00,53.3,49.8,30.18,WNW,282,0.0,0.0,88,0.00,,,0.01,86,Wunderground v.1.15,2013-01-06 16:03:00,
2013-01-06 11:13:00,53.5,49.4,30.18,NNE,30,0.0,0.0,86,0.00,,,0.01,62,Wunderground v.1.15,2013-01-06 16:13:00,
2013-01-06 11:23:00,53.6,49.2,30.18,North,9,0.0,0.0,85,0.00,,,0.01,105,Wunderground v.1.15,2013-01-06 16:23:00,
2013-01-06 11:33:00,53.8,49.4,30.16,North,9,0.0,1.0,85,0.00,,,0.01,174,Wunderground v.1.15,2013-01-06 16:33:00,
2013-01-06 11:43:00,54.1,49.4,30.16,NW,306,0.0,0.0,84,0.00,,,0.01,135,Wunderground v.1.15,2013-01-06 16:43:00,
2013-01-06 11:53:00,54.2,49.8,30.16,WNW,297,0.0,0.0,85,0.00,,,0.01,54,Wunderground v.1.15,2013-01-06 16:53:00,
2013-01-06 12:03:00,54.0,49.3,30.15,WNW,297,0.0,0.0,84,0.00,,,0.01,88,Wunderground v.1.15,2013-01-06 17:03:00,
2013-01-06 12:13:00,53.9,49.2,30.15,WSW,250,0.0,0.0,84,0.00,,,0.01,93,Wunderground v.1.15,2013-01-06 17:13:00,
2013-01-06 12:23:00,53.7,49.3,30.14,NE,47,0.0,2.0,85,0.00,,,0.01,77,Wunderground v.1.15,2013-01-06 17:23:00,
2013-01-06 12:33:00,53.3,48.3,30.13,WNW,298,0.0,0.0,83,0.00,,,0.01,107,Wunderground v.1.15,2013-01-06 17:33:00,
2013-01-06 12:43:00,52.7,47.4,30.13,WNW,302,0.0,0.0,82,0.00,,,0.01,109,Wunderground v.1.15,2013-01-06 17:43:00,
2013-01-06 12:53:00,52.5,46.8,30.12,NW,313,0.0,0.0,81,0.00,,,0.01,95,Wunderground v.1.15,2013-01-06 17:53:00,
2013-01-06 13:03:00,52.6,46.9,30.11,NW,313,0.0,0.0,81,0.00,,,0.01,105,Wunderground v.1.15,2013-01-06 18:03:00,
2013-01-06 13:13:00,52.7,47.0,30.11,NW,313,0.0,0.0,81,0.00,,,0.01,113,Wunderground v.1.15,2013-01-06 18:13:00,
2013-01-06 13:23:00,53.0,47.3,30.11,NW,313,0.0,0.0,81,0.00,,,0.01,104,Wunderground v.1.15,2013-01-06 18:23:00,
2013-01-06 13:33:00,53.3,48.3,30.11,NW,313,0.0,0.0,83,0.00,,,0.01,67,Wunderground v.1.15,2013-01-06 18:33:00,
2013-01-06 13:43:00,53.5,48.8,30.11,NW,313,0.0,0.0,84,0.00,,,0.01,81,Wunderground v.1.15,2013-01-06 18:43:00,
2013-01-06 13:53:00,53.6,49.5,30.10,NW,313,0.0,0.0,86,0.00,,,0.01,146,Wunderground v.1.15,2013-01-06 18:53:00,
2013-01-06 14:03:00,53.8,49.7,30.09,NNE,33,0.0,0.0,86,0.00,,,0.01,153,Wunderground v.1.15,2013-01-06 19:03:00,
2013-01-06 14:13:00,54.1,49.7,30.09,SE,124,0.0,0.0,85,0.00,,,0.01,81,Wunderground v.1.15,2013-01-06 19:13:00,
2013-01-06 14:23:00,54.2,49.5,30.09,SE,124,0.0,0.0,84,0.00,,,0.01,105,Wunderground v.1.15,2013-01-06 19:23:00,
2013-01-06 14:33:00,54.3,48.9,30.10,NW,308,0.0,2.0,82,0.00,,,0.01,51,Wunderground v.1.15,2013-01-06 19:33:00,
2013-01-06 14:53:00,52.0,47.0,30.10,NW,310,0.0,1.0,83,0.00,,,0.02,44,Wunderground v.1.15,2013-01-06 19:53:00,
2013-01-06 15:03:00,51.0,47.6,30.10,NW,310,0.0,0.0,88,0.09,,,0.04,39,Wunderground v.1.15,2013-01-06 20:03:00,
2013-01-06 15:13:00,50.7,48.2,30.10,NW,310,0.0,0.0,91,0.06,,,0.04,32,Wunderground v.1.15,2013-01-06 20:13:00,
2013-01-06 15:23:00,50.3,47.5,30.10,NW,310,0.0,0.0,90,0.06,,,0.05,33,Wunderground v.1.15,2013-01-06 20:23:00,
2013-01-06 15:33:00,49.1,46.6,30.10,SSW,210,0.0,0.0,91,0.10,,,0.07,30,Wunderground v.1.15,2013-01-06 20:33:00,
2013-01-06 15:43:00,48.5,46.3,30.10,WSW,254,0.0,0.0,92,0.05,,,0.07,21,Wunderground v.1.15,2013-01-06 20:43:00,
2013-01-06 15:53:00,47.9,46.0,30.10,WNW,296,0.0,0.0,93,0.00,,,0.08,9,Wunderground v.1.15,2013-01-06 20:53:00,
2013-01-06 16:03:00,47.8,46.2,30.10,NNW,332,0.0,1.0,94,0.05,,,0.09,18,Wunderground v.1.15,2013-01-06 21:03:00,
2013-01-06 16:13:00,48.0,46.6,30.10,NW,320,0.0,0.0,95,0.08,,,0.10,14,Wunderground v.1.15,2013-01-06 21:13:00,
2013-01-06 16:23:00,48.0,46.6,30.08,NW,320,0.0,0.0,95,0.04,,,0.10,12,Wunderground v.1.15,2013-01-06 21:23:00,
2013-01-06 16:33:00,48.1,47.0,30.09,NW,320,0.0,0.0,96,0.00,,,0.11,12,Wunderground v.1.15,2013-01-06 21:33:00,
2013-01-06 16:43:00,48.2,47.1,30.09,NW,320,0.0,0.0,96,0.00,,,0.11,14,Wunderground v.1.15,2013-01-06 21:43:00,
2013-01-06 16:53:00,48.3,47.2,30.08,NW,320,0.0,0.0,96,0.00,,,0.11,11,Wunderground v.1.15,2013-01-06 21:53:00,
2013-01-06 17:03:00,48.4,47.3,30.08,NW,320,0.0,0.0,96,0.00,,,0.11,7,Wunderground v.1.15,2013-01-06 22:03:00,
2013-01-06 17:13:00,48.5,47.4,30.08,NW,320,0.0,0.0,96,0.00,,,0.11,0,Wunderground v.1.15,2013-01-06 22:13:00,
2013-01-06 17:23:00,48.6,47.5,30.08,NW,320,0.0,0.0,96,0.00,,,0.11,0,Wunderground v.1.15,2013-01-06 22:23:00,
2013-01-06 17:33:00,48.7,47.9,30.08,NW,320,0.0,0.0,97,0.00,,,0.11,0,Wunderground v.1.15,2013-01-06 22:33:00,
2013-01-06 17:43:00,48.8,48.0,30.08,NW,320,0.0,0.0,97,0.00,,,0.11,0,Wunderground v.1.15,2013-01-06 22:43:00,
2013-01-06 17:53:00,48.8,48.0,30.08,NW,320,0.0,0.0,97,0.00,,,0.11,0,Wunderground v.1.15,2013-01-06 22:53:00,
2013-01-06 18:03:00,48.7,47.9,30.08,NW,320,0.0,0.0,97,0.00,,,0.11,0,Wunderground v.1.15,2013-01-06 23:03:00,
2013-01-06 18:13:00,48.8,48.0,30.08,NW,320,0.0,0.0,97,0.00,,,0.11,0,Wunderground v.1.15,2013-01-06 23:13:00,
2013-01-06 18:23:00,48.8,48.0,30.08,NW,320,0.0,0.0,97,0.00,,,0.11,0,Wunderground v.1.15,2013-01-06 23:23:00,
2013-01-06 18:33:00,48.9,48.1,30.08,NW,320,0.0,0.0,97,0.00,,,0.11,0,Wunderground v.1.15,2013-01-06 23:33:00,
2013-01-06 18:43:00,48.8,48.0,30.08,NW,320,0.0,0.0,97,0.00,,,0.11,0,Wunderground v.1.15,2013-01-06 23:43:00,
2013-01-06 18:53:00,48.7,47.9,30.08,NW,320,0.0,0.0,97,0.00,,,0.11,0,Wunderground v.1.15,2013-01-06 23:53:00,
2013-01-06 19:03:00,48.7,47.9,30.08,NW,320,0.0,0.0,97,0.00,,,0.11,0,Wunderground v.1.15,2013-01-07 00:03:00,
2013-01-06 19:13:00,48.5,47.7,30.08,NW,320,0.0,0.0,97,0.00,,,0.11,0,Wunderground v.1.15,2013-01-07 00:13:00,
2013-01-06 19:23:00,48.3,47.5,30.08,NW,320,0.0,0.0,97,0.00,,,0.11,0,Wunderground v.1.15,2013-01-07 00:23:00,
2013-01-06 19:33:00,48.1,47.3,30.09,NW,320,0.0,0.0,97,0.00,,,0.11,0,Wunderground v.1.15,2013-01-07 00:33:00,
2013-01-06 19:43:00,48.1,47.3,30.09,NW,320,0.0,0.0,97,0.00,,,0.11,0,Wunderground v.1.15,2013-01-07 00:43:00,
2013-01-06 19:53:00,48.1,47.3,30.08,NW,320,0.0,0.0,97,0.00,,,0.11,0,Wunderground v.1.15,2013-01-07 00:53:00,
2013-01-06 20:03:00,48.1,47.3,30.09,NW,320,0.0,1.0,97,0.00,,,0.11,0,Wunderground v.1.15,2013-01-07 01:03:00,
2013-01-06 20:13:00,48.2,47.4,30.09,NW,320,0.0,0.0,97,0.00,,,0.11,0,Wunderground v.1.15,2013-01-07 01:13:00,
2013-01-06 20:23:00,48.2,47.4,30.09,NW,320,0.0,0.0,97,0.00,,,0.11,0,Wunderground v.1.15,2013-01-07 01:23:00,
2013-01-06 20:33:00,48.3,47.5,30.10,NW,320,0.0,0.0,97,0.00,,,0.11,0,Wunderground v.1.15,2013-01-07 01:33:00,
2013-01-06 20:43:00,48.3,47.5,30.10,NW,320,0.0,0.0,97,0.00,,,0.11,0,Wunderground v.1.15,2013-01-07 01:43:00,
2013-01-06 20:53:00,48.4,47.6,30.09,NW,320,0.0,0.0,97,0.00,,,0.11,0,Wunderground v.1.15,2013-01-07 01:53:00,
2013-01-06 21:03:00,48.5,48.0,30.10,NW,320,0.0,0.0,98,0.00,,,0.11,0,Wunderground v.1.15,2013-01-07 02:03:00,
2013-01-06 21:13:00,48.6,48.1,30.10,NW,320,0.0,0.0,98,0.00,,,0.11,0,Wunderground v.1.15,2013-01-07 02:13:00,
2013-01-06 21:23:00,48.6,48.1,30.10,NW,320,0.0,0.0,98,0.00,,,0.11,0,Wunderground v.1.15,2013-01-07 02:23:00,
2013-01-06 21:33:00,48.7,48.2,30.11,NW,320,0.0,0.0,98,0.00,,,0.11,0,Wunderground v.1.15,2013-01-07 02:33:00,
2013-01-06 21:43:00,48.6,47.8,30.11,NW,321,0.0,0.0,97,0.00,,,0.11,0,Wunderground v.1.15,2013-01-07 02:43:00,
2013-01-06 21:53:00,48.6,47.8,30.11,NW,320,0.0,0.0,97,0.00,,,0.11,0,Wunderground v.1.15,2013-01-07 02:53:00,
2013-01-06 22:03:00,48.6,47.8,30.12,SW,234,0.0,0.0,97,0.00,,,0.11,0,Wunderground v.1.15,2013-01-07 03:03:00,
2013-01-06 22:13:00,48.7,47.9,30.12,SW,234,0.0,0.0,97,0.00,,,0.11,0,Wunderground v.1.15,2013-01-07 03:13:00,
2013-01-06 22:23:00,48.7,47.9,30.11,SW,234,0.0,0.0,97,0.00,,,0.11,0,Wunderground v.1.15,2013-01-07 03:23:00,
2013-01-06 22:33:00,48.7,47.9,30.11,SW,234,0.0,0.0,97,0.00,,,0.11,0,Wunderground v.1.15,2013-01-07 03:33:00,
2013-01-06 22:43:00,48.8,48.0,30.11,SW,234,0.0,0.0,97,0.00,,,0.11,0,Wunderground v.1.15,2013-01-07 03:43:00,
2013-01-06 22:53:00,48.8,48.0,30.12,SW,234,0.0,0.0,97,0.00,,,0.11,0,Wunderground v.1.15,2013-01-07 03:53:00,
2013-01-06 23:03:00,48.8,48.0,30.12,SW,234,0.0,0.0,97,0.00,,,0.11,0,Wunderground v.1.15,2013-01-07 04:03:00,
2013-01-06 23:13:00,48.8,48.0,30.12,SW,234,0.0,0.0,97,0.00,,,0.11,0,Wunderground v.1.15,2013-01-07 04:13:00,
2013-01-06 23:23:00,48.7,47.9,30.13,NW,323,0.0,0.0,97,0.00,,,0.11,0,Wunderground v.1.15,2013-01-07 04:23:00,
2013-01-06 23:33:00,48.7,47.9,30.13,NW,323,0.0,0.0,97,0.00,,,0.11,0,Wunderground v.1.15,2013-01-07 04:33:00,
2013-01-06 23:43:00,48.7,47.6,30.13,WNW,287,0.0,0.0,96,0.00,,,0.11,0,Wunderground v.1.15,2013-01-07 04:43:00,
2013-01-06 23:53:00,48.5,47.4,30.13,NNW,327,0.0,0.0,96,0.00,,,0.11,0,Wunderground v.1.15,2013-01-07 04:53:00,